{"data":{"norad_id":55921,"epoch":"2026-09-20T11:07:12.275328Z","epoch_age_seconds":106053,"freshness":"FRESH","line1":"1 55921U 23037H   26263.46333652  .00000670  00000+0  63952-4 0  9999","line2":"2 55921  70.0024 173.3120 0002820 274.3104  85.7733 14.98327982192667","mean_motion":14.98327982,"eccentricity":0.000282,"inclination_deg":70.0024,"raan_deg":173.312,"arg_perigee_deg":274.3104,"mean_anomaly_deg":85.7733,"bstar":6.3952e-5,"rev_number":19266,"period_min":96.107128565927,"perigee_km":570.10217529489,"apogee_km":574.02208760502,"semimajor_km":6950.19913145,"source":"CELESTRAK","updated_at":"2026-09-21T09:00:33.323412Z"}}